TimeCDT,TemperatureF,Dew PointF,Humidity,Sea Level PressureIn,VisibilityMPH,Wind Direction,Wind SpeedMPH,Gust SpeedMPH,PrecipitationIn,Events,Conditions,WindDirDegrees,DateUTC
12:15 AM,48.2,39.2,71,30.28,10.0,NE,6.9,-,N/A,,Clear,40,2013-05-12 05:15:00
12:35 AM,48.2,37.4,66,30.28,10.0,NE,5.8,-,N/A,,Clear,40,2013-05-12 05:35:00
12:55 AM,46.4,39.2,76,30.29,10.0,Calm,Calm,-,N/A,,Clear,0,2013-05-12 05:55:00
1:15 AM,48.2,39.2,71,30.28,10.0,Calm,Calm,-,N/A,,Clear,0,2013-05-12 06:15:00
1:35 AM,46.4,37.4,71,30.28,10.0,Calm,Calm,-,N/A,,Clear,0,2013-05-12 06:35:00
1:55 AM,50.0,37.4,62,30.28,10.0,Calm,Calm,-,N/A,,Clear,0,2013-05-12 06:55:00
2:15 AM,48.2,37.4,66,30.28,10.0,Calm,Calm,-,N/A,,Clear,0,2013-05-12 07:15:00
2:35 AM,50.0,37.4,62,30.28,10.0,Calm,Calm,-,N/A,,Clear,0,2013-05-12 07:35:00
2:55 AM,46.4,37.4,71,30.27,10.0,Calm,Calm,-,N/A,,Clear,0,2013-05-12 07:55:00
3:15 AM,46.4,37.4,71,30.27,10.0,Calm,Calm,-,N/A,,Clear,0,2013-05-12 08:15:00
3:35 AM,48.2,37.4,66,30.26,10.0,SSE,4.6,-,N/A,,Clear,150,2013-05-12 08:35:00
3:55 AM,46.4,35.6,66,30.26,10.0,Calm,Calm,-,N/A,,Clear,0,2013-05-12 08:55:00
4:35 AM,44.6,35.6,71,30.26,10.0,South,3.5,-,N/A,,Clear,190,2013-05-12 09:35:00
4:55 AM,44.6,35.6,71,30.26,10.0,West,3.5,-,N/A,,Clear,270,2013-05-12 09:55:00
5:15 AM,41.0,35.6,81,30.26,10.0,WNW,5.8,-,N/A,,Clear,290,2013-05-12 10:15:00
5:35 AM,41.0,37.4,87,30.27,10.0,NNW,5.8,-,N/A,,Clear,330,2013-05-12 10:35:00
5:55 AM,41.0,37.4,87,30.27,10.0,NNW,5.8,-,N/A,,Clear,340,2013-05-12 10:55:00
6:15 AM,42.8,37.4,81,30.27,10.0,North,3.5,-,N/A,,Clear,350,2013-05-12 11:15:00
6:35 AM,42.8,39.2,87,30.27,10.0,NE,8.1,-,N/A,,Clear,50,2013-05-12 11:35:00
6:55 AM,44.6,39.2,81,30.27,10.0,North,6.9,-,N/A,,Clear,10,2013-05-12 11:55:00
7:15 AM,46.4,41.0,81,30.27,10.0,NE,3.5,-,N/A,,Scattered Clouds,50,2013-05-12 12:15:00
7:35 AM,46.4,41.0,81,30.26,10.0,East,4.6,-,N/A,,Scattered Clouds,80,2013-05-12 12:35:00
7:55 AM,50.0,42.8,76,30.26,10.0,East,5.8,-,N/A,,Scattered Clouds,90,2013-05-12 12:55:00
8:15 AM,51.8,41.0,67,30.26,10.0,Calm,Calm,-,N/A,,Clear,0,2013-05-12 13:15:00
8:35 AM,53.6,41.0,62,30.26,10.0,South,3.5,-,N/A,,Clear,190,2013-05-12 13:35:00
8:55 AM,53.6,42.8,67,30.27,10.0,SSW,4.6,-,N/A,,Clear,200,2013-05-12 13:55:00
9:15 AM,55.4,37.4,51,30.28,10.0,South,6.9,-,N/A,,Clear,180,2013-05-12 14:15:00
9:35 AM,59.0,35.6,42,30.28,10.0,South,11.5,-,N/A,,Clear,180,2013-05-12 14:35:00
9:55 AM,60.8,35.6,39,30.28,10.0,South,10.4,-,N/A,,Clear,170,2013-05-12 14:55:00
10:15 AM,60.8,35.6,39,30.27,10.0,South,11.5,-,N/A,,Clear,180,2013-05-12 15:15:00
10:35 AM,62.6,35.6,37,30.27,10.0,South,9.2,-,N/A,,Clear,170,2013-05-12 15:35:00
10:55 AM,64.4,33.8,32,30.26,10.0,South,10.4,-,N/A,,Clear,170,2013-05-12 15:55:00
11:15 AM,66.2,32.0,28,30.26,10.0,South,11.5,-,N/A,,Clear,170,2013-05-12 16:15:00
11:35 AM,66.2,33.8,30,30.26,10.0,South,12.7,-,N/A,,Clear,190,2013-05-12 16:35:00
11:55 AM,69.8,32.0,25,30.25,10.0,South,12.7,-,N/A,,Clear,170,2013-05-12 16:55:00
12:15 PM,69.8,30.2,23,30.24,10.0,SSE,16.1,19.6,N/A,,Clear,160,2013-05-12 17:15:00
12:35 PM,71.6,30.2,22,30.24,10.0,South,16.1,19.6,N/A,,Clear,190,2013-05-12 17:35:00
12:55 PM,71.6,30.2,22,30.23,10.0,South,16.1,25.3,N/A,,Clear,190,2013-05-12 17:55:00
1:15 PM,71.6,28.4,20,30.22,10.0,South,15.0,23.0,N/A,,Clear,170,2013-05-12 18:15:00
1:35 PM,71.6,28.4,20,30.20,10.0,South,12.7,23.0,N/A,,Clear,180,2013-05-12 18:35:00
1:55 PM,71.6,30.2,22,30.19,10.0,South,15.0,25.3,N/A,,Clear,180,2013-05-12 18:55:00
2:15 PM,73.4,30.2,20,30.19,10.0,South,16.1,26.5,N/A,,Clear,190,2013-05-12 19:15:00
2:35 PM,73.4,30.2,20,30.18,10.0,South,17.3,28.8,N/A,,Clear,180,2013-05-12 19:35:00
2:55 PM,75.2,32.0,21,30.17,10.0,SSW,18.4,24.2,N/A,,Clear,210,2013-05-12 19:55:00
3:15 PM,75.2,32.0,21,30.17,10.0,South,15.0,23.0,N/A,,Clear,180,2013-05-12 20:15:00
3:35 PM,77.0,32.0,19,30.16,10.0,SSW,18.4,21.9,N/A,,Clear,200,2013-05-12 20:35:00
3:55 PM,77.0,32.0,19,30.15,10.0,SSW,16.1,24.2,N/A,,Clear,200,2013-05-12 20:55:00
4:15 PM,77.0,32.0,19,30.14,10.0,South,17.3,25.3,N/A,,Clear,190,2013-05-12 21:15:00
4:35 PM,77.0,32.0,19,30.12,10.0,SSW,16.1,-,N/A,,Clear,200,2013-05-12 21:35:00
4:55 PM,77.0,32.0,19,30.11,10.0,South,15.0,24.2,N/A,,Clear,190,2013-05-12 21:55:00
5:15 PM,77.0,33.8,21,30.11,10.0,South,13.8,21.9,N/A,,Clear,190,2013-05-12 22:15:00
5:35 PM,77.0,33.8,21,30.10,10.0,South,18.4,23.0,N/A,,Clear,180,2013-05-12 22:35:00
5:55 PM,77.0,35.6,22,30.09,10.0,South,19.6,25.3,N/A,,Clear,180,2013-05-12 22:55:00
6:15 PM,77.0,37.4,24,30.08,10.0,South,13.8,18.4,N/A,,Clear,180,2013-05-12 23:15:00
6:35 PM,77.0,37.4,24,30.07,10.0,South,15.0,20.7,N/A,,Clear,190,2013-05-12 23:35:00
6:55 PM,77.0,37.4,24,30.07,10.0,South,13.8,21.9,N/A,,Clear,170,2013-05-12 23:55:00
7:15 PM,77.0,39.2,26,30.06,10.0,South,15.0,-,N/A,,Clear,170,2013-05-13 00:15:00
7:35 PM,73.4,39.2,29,30.06,10.0,South,11.5,-,N/A,,Clear,170,2013-05-13 00:35:00
7:55 PM,73.4,39.2,29,30.06,10.0,SSE,10.4,-,N/A,,Clear,160,2013-05-13 00:55:00
8:15 PM,71.6,41.0,33,30.06,10.0,SSE,9.2,-,N/A,,Clear,150,2013-05-13 01:15:00
8:35 PM,69.8,42.8,38,30.06,10.0,SSE,9.2,-,N/A,,Clear,150,2013-05-13 01:35:00
8:55 PM,68.0,42.8,40,30.06,10.0,SSE,10.4,-,N/A,,Clear,150,2013-05-13 01:55:00
9:15 PM,68.0,42.8,40,30.07,10.0,SSE,9.2,-,N/A,,Clear,150,2013-05-13 02:15:00
9:35 PM,66.2,42.8,43,30.07,10.0,SSE,10.4,-,N/A,,Clear,150,2013-05-13 02:35:00
9:55 PM,66.2,42.8,43,30.07,10.0,SSE,11.5,-,N/A,,Clear,150,2013-05-13 02:55:00
10:15 PM,64.4,42.8,45,30.07,10.0,SSE,11.5,-,N/A,,Clear,160,2013-05-13 03:15:00
10:35 PM,62.6,42.8,48,30.08,10.0,SSE,9.2,-,N/A,,Clear,160,2013-05-13 03:35:00
10:55 PM,60.8,44.6,55,30.08,10.0,South,10.4,-,N/A,,Clear,170,2013-05-13 03:55:00
11:15 PM,60.8,44.6,55,30.09,10.0,SSE,9.2,-,N/A,,Clear,160,2013-05-13 04:15:00
11:35 PM,60.8,44.6,55,30.09,10.0,SSE,11.5,-,N/A,,Clear,160,2013-05-13 04:35:00
11:55 PM,59.0,44.6,59,30.09,10.0,SSE,10.4,-,N/A,,Clear,160,2013-05-13 04:55:00